Wetterdaten: Donnerstag, 15.03.2007
Datum Zeit Temp. A. Feuchte A. Luftdruck Regen Wind Richtung Richtung Sonnenschein UV Solar Windben
15.03.2007 00:00 4,0 C 84 % 1033,4 hPa 0,0 mm 0,0 km/h (0 Bft) N 0 0 min 0 UV-I 0 W/m 0,0 km/h (0 Bft)
15.03.2007 00:10 3,7 C 85 % 1033,4 hPa 0,0 mm 0,0 km/h (0 Bft) N 0 0 min 0 UV-I 0 W/m 0,0 km/h (0 Bft)
15.03.2007 00:20 3,6 C 85 % 1033,3 hPa 0,0 mm 0,0 km/h (0 Bft) N 0 0 min 0 UV-I 0 W/m 0,0 km/h (0 Bft)
15.03.2007 00:30 3,4 C 86 % 1033,3 hPa 0,0 mm 0,0 km/h (0 Bft) N 0 0 min 0 UV-I 0 W/m 0,0 km/h (0 Bft)
15.03.2007 00:40 3,3 C 85 % 1033,2 hPa 0,0 mm 0,0 km/h (0 Bft) N 0 0 min 0 UV-I 0 W/m 0,0 km/h (0 Bft)
15.03.2007 00:50 3,1 C 86 % 1033,3 hPa 0,0 mm 0,0 km/h (0 Bft) N 0 0 min 0 UV-I 0 W/m 0,0 km/h (0 Bft)
15.03.2007 01:00 2,9 C 86 % 1033,4 hPa 0,0 mm 0,0 km/h (0 Bft) N 0 0 min 0 UV-I 0 W/m 0,0 km/h (0 Bft)
15.03.2007 01:10 2,7 C 88 % 1033,3 hPa 0,0 mm 0,0 km/h (0 Bft) N 0 0 min 0 UV-I 0 W/m 0,0 km/h (0 Bft)
15.03.2007 01:20 2,7 C 87 % 1033,3 hPa 0,0 mm 0,0 km/h (0 Bft) N 0 0 min 0 UV-I 0 W/m 0,0 km/h (0 Bft)
15.03.2007 01:30 2,7 C 87 % 1033,2 hPa 0,0 mm 0,0 km/h (0 Bft) N 0 0 min 0 UV-I 0 W/m 0,0 km/h (0 Bft)
15.03.2007 01:40 2,8 C 86 % 1033,0 hPa 0,0 mm 0,0 km/h (0 Bft) N 0 0 min 0 UV-I 0 W/m 0,0 km/h (0 Bft)
15.03.2007 01:50 2,8 C 86 % 1032,9 hPa 0,0 mm 0,0 km/h (0 Bft) N 0 0 min 0 UV-I 0 W/m 0,0 km/h (0 Bft)
15.03.2007 02:00 2,7 C 87 % 1032,8 hPa 0,0 mm 0,0 km/h (0 Bft) N 0 0 min 0 UV-I 0 W/m 0,0 km/h (0 Bft)
15.03.2007 02:10 2,4 C 87 % 1032,7 hPa 0,0 mm 0,0 km/h (0 Bft) N 0 0 min 0 UV-I 0 W/m 0,0 km/h (0 Bft)
15.03.2007 02:20 2,4 C 87 % 1032,6 hPa 0,0 mm 0,0 km/h (0 Bft) S-SW 202 0 min 0 UV-I 0 W/m 1,6 km/h (1 Bft)
15.03.2007 02:30 2,6 C 87 % 1032,6 hPa 0,0 mm 0,0 km/h (0 Bft) N 0 0 min 0 UV-I 0 W/m 0,0 km/h (0 Bft)
15.03.2007 02:40 2,5 C 86 % 1032,5 hPa 0,0 mm 0,0 km/h (0 Bft) N 0 0 min 0 UV-I 0 W/m 0,0 km/h (0 Bft)
15.03.2007 02:50 2,4 C 87 % 1032,5 hPa 0,0 mm 0,0 km/h (0 Bft) N 0 0 min 0 UV-I 0 W/m 0,0 km/h (0 Bft)
15.03.2007 03:00 2,3 C 87 % 1032,4 hPa 0,0 mm 0,0 km/h (0 Bft) N 0 0 min 0 UV-I 0 W/m 0,0 km/h (0 Bft)
15.03.2007 03:10 2,2 C 92 % 1032,4 hPa 0,0 mm 0,0 km/h (0 Bft) S 180 0 min 0 UV-I 0 W/m 1,6 km/h (1 Bft)
15.03.2007 03:20 2,2 C 87 % 1032,3 hPa 0,0 mm 0,0 km/h (0 Bft) N 0 0 min 0 UV-I 0 W/m 0,0 km/h (0 Bft)
15.03.2007 03:30 2,0 C 87 % 1032,2 hPa 0,0 mm 0,0 km/h (0 Bft) N 0 0 min 0 UV-I 0 W/m 0,0 km/h (0 Bft)
15.03.2007 03:40 1,9 C 87 % 1032,1 hPa 0,0 mm 0,0 km/h (0 Bft) N 0 0 min 0 UV-I 0 W/m 0,0 km/h (0 Bft)
15.03.2007 03:50 1,8 C 87 % 1032,1 hPa 0,0 mm 0,0 km/h (0 Bft) N 0 0 min 0 UV-I 0 W/m 0,0 km/h (0 Bft)
15.03.2007 04:00 1,7 C 87 % 1032,0 hPa 0,0 mm 0,0 km/h (0 Bft) N 0 0 min 0 UV-I 0 W/m 0,0 km/h (0 Bft)
15.03.2007 04:10 1,6 C 88 % 1032,0 hPa 0,0 mm 0,0 km/h (0 Bft) N 0 0 min 0 UV-I 0 W/m 0,0 km/h (0 Bft)
15.03.2007 04:20 1,6 C 87 % 1032,0 hPa 0,0 mm 0,0 km/h (0 Bft) N 0 0 min 0 UV-I 0 W/m 0,0 km/h (0 Bft)
15.03.2007 04:30 1,4 C 88 % 1032,0 hPa 0,0 mm 0,0 km/h (0 Bft) N 0 0 min 0 UV-I 0 W/m 0,0 km/h (0 Bft)
15.03.2007 04:40 1,3 C 88 % 1031,9 hPa 0,0 mm 0,0 km/h (0 Bft) N 0 0 min 0 UV-I 0 W/m 0,0 km/h (0 Bft)
15.03.2007 04:50 1,3 C 88 % 1031,9 hPa 0,0 mm 0,0 km/h (0 Bft) N 0 0 min 0 UV-I 0 W/m 0,0 km/h (0 Bft)
15.03.2007 05:00 1,3 C 88 % 1031,9 hPa 0,0 mm 0,0 km/h (0 Bft) N 0 0 min 0 UV-I 0 W/m 0,0 km/h (0 Bft)
15.03.2007 05:10 1,2 C 89 % 1031,8 hPa 0,0 mm 0,0 km/h (0 Bft) N 0 0 min 0 UV-I 0 W/m 0,0 km/h (0 Bft)
15.03.2007 05:20 1,3 C 89 % 1031,8 hPa 0,0 mm 0,0 km/h (0 Bft) N 0 0 min 0 UV-I 0 W/m 0,0 km/h (0 Bft)
15.03.2007 05:30 1,3 C 88 % 1031,8 hPa 0,0 mm 0,0 km/h (0 Bft) N 0 0 min 0 UV-I 0 W/m 0,0 km/h (0 Bft)
15.03.2007 05:40 1,2 C 88 % 1031,7 hPa 0,0 mm 0,0 km/h (0 Bft) N 0 0 min 0 UV-I 0 W/m 0,0 km/h (0 Bft)
15.03.2007 05:50 1,0 C 89 % 1031,7 hPa 0,0 mm 0,0 km/h (0 Bft) N 0 0 min 0 UV-I 0 W/m 0,0 km/h (0 Bft)
15.03.2007 06:00 1,0 C 89 % 1031,7 hPa 0,0 mm 0,0 km/h (0 Bft) N 0 0 min 0 UV-I 0 W/m 0,0 km/h (0 Bft)
15.03.2007 06:10 0,9 C 90 % 1031,6 hPa 0,0 mm 0,0 km/h (0 Bft) N 0 0 min 0 UV-I 0 W/m 0,0 km/h (0 Bft)
15.03.2007 06:20 0,7 C 90 % 1031,7 hPa 0,0 mm 0,0 km/h (0 Bft) N 0 0 min 0 UV-I 0 W/m 0,0 km/h (0 Bft)
15.03.2007 06:30 0,6 C 90 % 1031,6 hPa 0,0 mm 0,0 km/h (0 Bft) N 0 0 min 0 UV-I 0 W/m 0,0 km/h (0 Bft)
15.03.2007 06:40 0,6 C 90 % 1031,6 hPa 0,0 mm 0,0 km/h (0 Bft) N 0 0 min 0 UV-I 0 W/m 0,0 km/h (0 Bft)
15.03.2007 06:50 0,5 C 90 % 1031,6 hPa 0,0 mm 0,0 km/h (0 Bft) N 0 0 min 0 UV-I 11 W/m 0,0 km/h (0 Bft)
15.03.2007 07:00 0,4 C 90 % 1031,6 hPa 0,0 mm 0,0 km/h (0 Bft) N 0 0 min 0 UV-I 18 W/m 0,0 km/h (0 Bft)
15.03.2007 07:10 0,6 C 90 % 1031,7 hPa 0,0 mm 0,0 km/h (0 Bft) N 0 0 min 0 UV-I 28 W/m 0,0 km/h (0 Bft)
15.03.2007 07:20 0,7 C 91 % 1031,7 hPa 0,0 mm 0,0 km/h (0 Bft) N 0 0 min 0 UV-I 42 W/m 0,0 km/h (0 Bft)
15.03.2007 07:30 1,1 C 90 % 1031,7 hPa 0,0 mm 0,0 km/h (0 Bft) N 0 0 min 0 UV-I 60 W/m 0,0 km/h (0 Bft)
15.03.2007 07:40 1,2 C 90 % 1031,7 hPa 0,0 mm 0,0 km/h (0 Bft) N 0 10 min 0 UV-I 81 W/m 0,0 km/h (0 Bft)
15.03.2007 07:50 1,5 C 89 % 1031,6 hPa 0,0 mm 0,0 km/h (0 Bft) N 0 10 min 0 UV-I 98 W/m 0,0 km/h (0 Bft)
15.03.2007 08:00 1,9 C 88 % 1031,6 hPa 0,0 mm 0,0 km/h (0 Bft) N 0 10 min 0 UV-I 111 W/m 0,0 km/h (0 Bft)
15.03.2007 08:10 2,3 C 87 % 1031,5 hPa 0,0 mm 0,0 km/h (0 Bft) S 180 10 min 0 UV-I 132 W/m 1,6 km/h (1 Bft)
15.03.2007 08:20 2,8 C 86 % 1031,5 hPa 0,0 mm 0,0 km/h (0 Bft) O-NO 67 10 min 0 UV-I 158 W/m 3,2 km/h (1 Bft)
15.03.2007 08:30 3,3 C 84 % 1031,4 hPa 0,0 mm 0,0 km/h (0 Bft) O-NO 67 10 min 0 UV-I 181 W/m 3,2 km/h (1 Bft)
15.03.2007 08:40 3,7 C 83 % 1031,4 hPa 0,0 mm 0,0 km/h (0 Bft) O-NO 67 10 min 1 UV-I 204 W/m 3,2 km/h (1 Bft)
15.03.2007 08:50 4,2 C 82 % 1031,3 hPa 0,0 mm 0,0 km/h (0 Bft) O-NO 67 10 min 1 UV-I 229 W/m 3,2 km/h (1 Bft)
15.03.2007 09:00 4,7 C 81 % 1031,2 hPa 0,0 mm 0,0 km/h (0 Bft) O-NO 67 10 min 1 UV-I 251 W/m 1,6 km/h (1 Bft)
15.03.2007 09:10 5,3 C 79 % 1031,2 hPa 0,0 mm 0,0 km/h (0 Bft) O-NO 67 10 min 1 UV-I 265 W/m 1,6 km/h (1 Bft)
15.03.2007 09:20 5,8 C 78 % 1031,1 hPa 0,0 mm 0,0 km/h (0 Bft) N 0 10 min 1 UV-I 285 W/m 0,0 km/h (0 Bft)
15.03.2007 09:30 6,3 C 75 % 1031,0 hPa 0,0 mm 0,0 km/h (0 Bft) N 0 10 min 1 UV-I 309 W/m 0,0 km/h (0 Bft)
15.03.2007 09:40 6,8 C 73 % 1030,9 hPa 0,0 mm 0,0 km/h (0 Bft) O-NO 67 10 min 1 UV-I 339 W/m 1,6 km/h (1 Bft)
15.03.2007 09:50 7,3 C 72 % 1030,8 hPa 0,0 mm 0,0 km/h (0 Bft) N-NO 22 10 min 1 UV-I 366 W/m 3,2 km/h (1 Bft)
15.03.2007 10:00 7,7 C 72 % 1030,8 hPa 0,0 mm 0,0 km/h (0 Bft) W-NW 292 10 min 1 UV-I 387 W/m 3,2 km/h (1 Bft)
15.03.2007 10:10 8,2 C 71 % 1030,7 hPa 0,0 mm 0,0 km/h (0 Bft) W-NW 292 10 min 2 UV-I 403 W/m 3,2 km/h (1 Bft)
15.03.2007 10:20 8,4 C 69 % 1030,6 hPa 0,0 mm 0,0 km/h (0 Bft) W-NW 292 10 min 2 UV-I 410 W/m 4,8 km/h (1 Bft)
15.03.2007 10:30 8,6 C 69 % 1030,6 hPa 0,0 mm 0,0 km/h (0 Bft) N-NW 337 10 min 2 UV-I 432 W/m 1,6 km/h (1 Bft)
15.03.2007 10:40 9,1 C 67 % 1030,5 hPa 0,0 mm 0,0 km/h (0 Bft) O 90 10 min 2 UV-I 446 W/m 1,6 km/h (1 Bft)
15.03.2007 10:50 9,4 C 65 % 1030,5 hPa 0,0 mm 0,0 km/h (0 Bft) W 270 10 min 2 UV-I 462 W/m 3,2 km/h (1 Bft)
15.03.2007 11:00 9,7 C 65 % 1030,4 hPa 0,0 mm 1,6 km/h (1 Bft) W-NW 292 10 min 2 UV-I 485 W/m 4,8 km/h (1 Bft)
15.03.2007 11:10 10,1 C 66 % 1030,3 hPa 0,0 mm 0,0 km/h (0 Bft) W-NW 292 10 min 2 UV-I 503 W/m 3,2 km/h (1 Bft)
15.03.2007 11:20 10,3 C 66 % 1030,3 hPa 0,0 mm 1,6 km/h (1 Bft) W-NW 292 10 min 2 UV-I 515 W/m 4,8 km/h (1 Bft)
15.03.2007 11:30 10,6 C 65 % 1030,2 hPa 0,0 mm 1,6 km/h (1 Bft) W-NW 292 10 min 2 UV-I 534 W/m 6,4 km/h (2 Bft)
15.03.2007 11:40 10,9 C 63 % 1030,1 hPa 0,0 mm 0,0 km/h (0 Bft) NO 45 10 min 2 UV-I 550 W/m 6,4 km/h (2 Bft)
15.03.2007 11:50 11,2 C 62 % 1029,9 hPa 0,0 mm 0,0 km/h (0 Bft) N-NW 337 10 min 3 UV-I 557 W/m 4,8 km/h (1 Bft)
15.03.2007 12:00 11,3 C 60 % 1029,7 hPa 0,0 mm 1,6 km/h (1 Bft) N-NW 337 10 min 3 UV-I 584 W/m 6,4 km/h (2 Bft)
15.03.2007 12:10 11,6 C 59 % 1029,6 hPa 0,0 mm 1,6 km/h (1 Bft) W 270 10 min 3 UV-I 606 W/m 4,8 km/h (1 Bft)
15.03.2007 12:20 11,7 C 57 % 1029,6 hPa 0,0 mm 1,6 km/h (1 Bft) W-NW 292 10 min 3 UV-I 643 W/m 6,4 km/h (2 Bft)
15.03.2007 12:30 11,9 C 59 % 1029,4 hPa 0,0 mm 1,6 km/h (1 Bft) W-SW 247 10 min 3 UV-I 606 W/m 6,4 km/h (2 Bft)
15.03.2007 12:40 12,3 C 53 % 1029,2 hPa 0,0 mm 1,6 km/h (1 Bft) W-NW 292 10 min 3 UV-I 584 W/m 6,4 km/h (2 Bft)
15.03.2007 12:50 12,2 C 52 % 1029,0 hPa 0,0 mm 1,6 km/h (1 Bft) W-SW 247 10 min 3 UV-I 577 W/m 6,4 km/h (2 Bft)
15.03.2007 13:00 12,2 C 53 % 1028,9 hPa 0,0 mm 1,6 km/h (1 Bft) W 270 10 min 3 UV-I 575 W/m 9,7 km/h (2 Bft)
15.03.2007 13:10 12,3 C 53 % 1028,6 hPa 0,0 mm 1,6 km/h (1 Bft) NW 315 10 min 3 UV-I 564 W/m 4,8 km/h (1 Bft)
15.03.2007 13:20 12,2 C 53 % 1028,4 hPa 0,0 mm 0,0 km/h (0 Bft) N-NW 337 10 min 3 UV-I 559 W/m 3,2 km/h (1 Bft)
15.03.2007 13:30 12,4 C 53 % 1028,2 hPa 0,0 mm 1,6 km/h (1 Bft) W-NW 292 10 min 3 UV-I 577 W/m 4,8 km/h (1 Bft)
15.03.2007 13:40 12,5 C 54 % 1028,1 hPa 0,0 mm 1,6 km/h (1 Bft) W 270 10 min 2 UV-I 578 W/m 4,8 km/h (1 Bft)
15.03.2007 13:50 12,7 C 53 % 1027,9 hPa 0,0 mm 1,6 km/h (1 Bft) W-SW 247 10 min 2 UV-I 561 W/m 6,4 km/h (2 Bft)
15.03.2007 14:00 12,8 C 52 % 1027,8 hPa 0,0 mm 1,6 km/h (1 Bft) W 270 10 min 2 UV-I 543 W/m 4,8 km/h (1 Bft)
15.03.2007 14:10 12,9 C 51 % 1027,7 hPa 0,0 mm 3,2 km/h (1 Bft) W 270 10 min 2 UV-I 519 W/m 8,0 km/h (2 Bft)
15.03.2007 14:20 12,9 C 51 % 1027,6 hPa 0,0 mm 1,6 km/h (1 Bft) W 270 10 min 2 UV-I 506 W/m 6,4 km/h (2 Bft)
15.03.2007 14:30 13,0 C 51 % 1027,4 hPa 0,0 mm 1,6 km/h (1 Bft) W-SW 247 10 min 2 UV-I 496 W/m 6,4 km/h (2 Bft)
15.03.2007 14:40 13,2 C 51 % 1027,4 hPa 0,0 mm 1,6 km/h (1 Bft) W-NW 292 10 min 2 UV-I 485 W/m 6,4 km/h (2 Bft)
15.03.2007 14:50 13,2 C 51 % 1027,2 hPa 0,0 mm 1,6 km/h (1 Bft) W 270 10 min 2 UV-I 471 W/m 6,4 km/h (2 Bft)
15.03.2007 15:00 13,2 C 49 % 1027,0 hPa 0,0 mm 0,0 km/h (0 Bft) W-NW 292 10 min 2 UV-I 455 W/m 4,8 km/h (1 Bft)
15.03.2007 15:10 13,2 C 51 % 1027,0 hPa 0,0 mm 1,6 km/h (1 Bft) W-SW 247 10 min 1 UV-I 431 W/m 6,4 km/h (2 Bft)
15.03.2007 15:20 13,3 C 50 % 1026,8 hPa 0,0 mm 1,6 km/h (1 Bft) W 270 10 min 1 UV-I 410 W/m 4,8 km/h (1 Bft)
15.03.2007 15:30 13,4 C 50 % 1026,8 hPa 0,0 mm 1,6 km/h (1 Bft) W-NW 292 10 min 1 UV-I 387 W/m 4,8 km/h (1 Bft)
15.03.2007 15:40 13,3 C 51 % 1026,7 hPa 0,0 mm 1,6 km/h (1 Bft) W 270 10 min 1 UV-I 373 W/m 6,4 km/h (2 Bft)
15.03.2007 15:50 13,3 C 51 % 1026,6 hPa 0,0 mm 1,6 km/h (1 Bft) SW 225 10 min 1 UV-I 341 W/m 6,4 km/h (2 Bft)
15.03.2007 16:00 13,3 C 51 % 1026,4 hPa 0,0 mm 0,0 km/h (0 Bft) O 90 10 min 1 UV-I 320 W/m 3,2 km/h (1 Bft)
15.03.2007 16:10 13,3 C 50 % 1026,3 hPa 0,0 mm 1,6 km/h (1 Bft) W-NW 292 10 min 1 UV-I 301 W/m 4,8 km/h (1 Bft)
15.03.2007 16:20 13,3 C 50 % 1026,2 hPa 0,0 mm 1,6 km/h (1 Bft) SW 225 10 min 1 UV-I 267 W/m 6,4 km/h (2 Bft)
15.03.2007 16:30 13,1 C 50 % 1026,1 hPa 0,0 mm 1,6 km/h (1 Bft) W-SW 247 10 min 1 UV-I 243 W/m 3,2 km/h (1 Bft)
15.03.2007 16:40 13,1 C 50 % 1026,1 hPa 0,0 mm 0,0 km/h (0 Bft) W-SW 247 10 min 1 UV-I 227 W/m 3,2 km/h (1 Bft)
15.03.2007 16:50 13,1 C 52 % 1026,0 hPa 0,0 mm 1,6 km/h (1 Bft) W 270 10 min 0 UV-I 206 W/m 4,8 km/h (1 Bft)
15.03.2007 17:00 12,9 C 53 % 1026,0 hPa 0,0 mm 0,0 km/h (0 Bft) W-NW 292 10 min 0 UV-I 185 W/m 4,8 km/h (1 Bft)
15.03.2007 17:10 12,8 C 53 % 1025,9 hPa 0,0 mm 0,0 km/h (0 Bft) W-NW 292 10 min 0 UV-I 160 W/m 1,6 km/h (1 Bft)
15.03.2007 17:20 12,7 C 54 % 1025,7 hPa 0,0 mm 0,0 km/h (0 Bft) W-NW 292 10 min 0 UV-I 134 W/m 3,2 km/h (1 Bft)
15.03.2007 17:30 12,4 C 56 % 1025,8 hPa 0,0 mm 0,0 km/h (0 Bft) NW 315 10 min 0 UV-I 107 W/m 4,8 km/h (1 Bft)
15.03.2007 17:40 12,2 C 56 % 1025,7 hPa 0,0 mm 0,0 km/h (0 Bft) W-NW 292 10 min 0 UV-I 83 W/m 1,6 km/h (1 Bft)
15.03.2007 17:50 12,0 C 57 % 1025,7 hPa 0,0 mm 0,0 km/h (0 Bft) W-NW 292 10 min 0 UV-I 60 W/m 1,6 km/h (1 Bft)
15.03.2007 18:00 11,7 C 58 % 1025,7 hPa 0,0 mm 0,0 km/h (0 Bft) N 0 10 min 0 UV-I 40 W/m 0,0 km/h (0 Bft)
15.03.2007 18:10 11,4 C 60 % 1025,8 hPa 0,0 mm 0,0 km/h (0 Bft) N 0 10 min 0 UV-I 23 W/m 0,0 km/h (0 Bft)
15.03.2007 18:20 10,8 C 63 % 1025,7 hPa 0,0 mm 0,0 km/h (0 Bft) N 0 0 min 0 UV-I 14 W/m 0,0 km/h (0 Bft)
15.03.2007 18:30 10,2 C 64 % 1025,8 hPa 0,0 mm 0,0 km/h (0 Bft) N 0 0 min 0 UV-I 0 W/m 0,0 km/h (0 Bft)
15.03.2007 18:40 9,7 C 66 % 1025,9 hPa 0,0 mm 0,0 km/h (0 Bft) N 0 0 min 0 UV-I 0 W/m 0,0 km/h (0 Bft)
15.03.2007 18:50 9,3 C 68 % 1025,9 hPa 0,0 mm 0,0 km/h (0 Bft) N 0 0 min 0 UV-I 0 W/m 0,0 km/h (0 Bft)
15.03.2007 19:00 8,9 C 70 % 1025,8 hPa 0,0 mm 0,0 km/h (0 Bft) N 0 0 min 0 UV-I 0 W/m 0,0 km/h (0 Bft)
15.03.2007 19:10 8,5 C 71 % 1025,8 hPa 0,0 mm 0,0 km/h (0 Bft) N 0 0 min 0 UV-I 0 W/m 0,0 km/h (0 Bft)
15.03.2007 19:20 8,3 C 72 % 1025,8 hPa 0,0 mm 0,0 km/h (0 Bft) N 0 0 min 0 UV-I 0 W/m 0,0 km/h (0 Bft)
15.03.2007 19:30 8,1 C 74 % 1025,8 hPa 0,0 mm 0,0 km/h (0 Bft) N 0 0 min 0 UV-I 0 W/m 0,0 km/h (0 Bft)
15.03.2007 19:40 7,7 C 75 % 1025,8 hPa 0,0 mm 0,0 km/h (0 Bft) N 0 0 min 0 UV-I 0 W/m 0,0 km/h (0 Bft)
15.03.2007 19:50 7,5 C 76 % 1025,7 hPa 0,0 mm 0,0 km/h (0 Bft) N 0 0 min 0 UV-I 0 W/m 0,0 km/h (0 Bft)
15.03.2007 20:00 7,3 C 77 % 1025,7 hPa 0,0 mm 0,0 km/h (0 Bft) N 0 0 min 0 UV-I 0 W/m 0,0 km/h (0 Bft)
15.03.2007 20:10 7,0 C 78 % 1025,6 hPa 0,0 mm 0,0 km/h (0 Bft) N 0 0 min 0 UV-I 0 W/m 0,0 km/h (0 Bft)
15.03.2007 20:20 6,9 C 78 % 1025,6 hPa 0,0 mm 0,0 km/h (0 Bft) N 0 0 min 0 UV-I 0 W/m 0,0 km/h (0 Bft)
15.03.2007 20:30 6,7 C 80 % 1025,7 hPa 0,0 mm 0,0 km/h (0 Bft) N 0 0 min 0 UV-I 0 W/m 0,0 km/h (0 Bft)
15.03.2007 20:40 6,4 C 78 % 1025,6 hPa 0,0 mm 0,0 km/h (0 Bft) N 0 0 min 0 UV-I 0 W/m 0,0 km/h (0 Bft)
15.03.2007 20:50 6,3 C 79 % 1025,6 hPa 0,0 mm 0,0 km/h (0 Bft) N 0 0 min 0 UV-I 0 W/m 0,0 km/h (0 Bft)
15.03.2007 21:00 6,1 C 80 % 1025,6 hPa 0,0 mm 0,0 km/h (0 Bft) N 0 0 min 0 UV-I 0 W/m 0,0 km/h (0 Bft)
15.03.2007 21:10 5,8 C 81 % 1025,6 hPa 0,0 mm 0,0 km/h (0 Bft) N 0 0 min 0 UV-I 0 W/m 0,0 km/h (0 Bft)
15.03.2007 21:20 5,8 C 80 % 1025,5 hPa 0,0 mm 0,0 km/h (0 Bft) N 0 0 min 0 UV-I 0 W/m 0,0 km/h (0 Bft)
15.03.2007 21:30 5,9 C 80 % 1025,6 hPa 0,0 mm 0,0 km/h (0 Bft) N 0 0 min 0 UV-I 0 W/m 0,0 km/h (0 Bft)
15.03.2007 21:40 5,9 C 80 % 1025,6 hPa 0,0 mm 0,0 km/h (0 Bft) N 0 0 min 0 UV-I 0 W/m 0,0 km/h (0 Bft)
15.03.2007 21:50 6,2 C 79 % 1025,7 hPa 0,0 mm 0,0 km/h (0 Bft) N 0 0 min 0 UV-I 0 W/m 0,0 km/h (0 Bft)
15.03.2007 22:00 5,8 C 81 % 1025,8 hPa 0,0 mm 0,0 km/h (0 Bft) N 0 0 min 0 UV-I 0 W/m 0,0 km/h (0 Bft)
15.03.2007 22:10 5,6 C 82 % 1025,7 hPa 0,0 mm 0,0 km/h (0 Bft) N 0 0 min 0 UV-I 0 W/m 0,0 km/h (0 Bft)
15.03.2007 22:20 5,6 C 82 % 1025,7 hPa 0,0 mm 0,0 km/h (0 Bft) N 0 0 min 0 UV-I 0 W/m 0,0 km/h (0 Bft)
15.03.2007 22:30 5,7 C 81 % 1025,6 hPa 0,0 mm 0,0 km/h (0 Bft) N 0 0 min 0 UV-I 0 W/m 0,0 km/h (0 Bft)
15.03.2007 22:40 5,8 C 81 % 1025,5 hPa 0,0 mm 0,0 km/h (0 Bft) N 0 0 min 0 UV-I 0 W/m 0,0 km/h (0 Bft)
15.03.2007 22:50 5,8 C 81 % 1025,5 hPa 0,0 mm 0,0 km/h (0 Bft) N 0 0 min 0 UV-I 0 W/m 0,0 km/h (0 Bft)
15.03.2007 23:00 5,8 C 80 % 1025,6 hPa 0,0 mm 0,0 km/h (0 Bft) N 0 0 min 0 UV-I 0 W/m 0,0 km/h (0 Bft)
15.03.2007 23:10 5,8 C 81 % 1025,5 hPa 0,0 mm 0,0 km/h (0 Bft) N 0 0 min 0 UV-I 0 W/m 0,0 km/h (0 Bft)
15.03.2007 23:20 5,6 C 81 % 1025,5 hPa 0,0 mm 0,0 km/h (0 Bft) N 0 0 min 0 UV-I 0 W/m 0,0 km/h (0 Bft)
15.03.2007 23:30 5,3 C 82 % 1025,6 hPa 0,0 mm 0,0 km/h (0 Bft) N 0 0 min 0 UV-I 0 W/m 0,0 km/h (0 Bft)
15.03.2007 23:40 5,0 C 83 % 1025,6 hPa 0,0 mm 0,0 km/h (0 Bft) N 0 0 min 0 UV-I 0 W/m 0,0 km/h (0 Bft)
15.03.2007 23:50 4,8 C 84 % 1025,5 hPa 0,0 mm 0,0 km/h (0 Bft) N 0 0 min 0 UV-I 0 W/m 0,0 km/h (0 Bft)
_ Min-Zeit 06:50 15:00 21:20 - 00:00 - - - - - 00:00
Minimum _ 0,4 C 49 % 1025,5 hPa - 0,0 km/h (0 Bft) - - - - - 0,0 km/h (0 Bft)
_ Max-Zeit 15:20 03:10 00:00 00:00 14:10 - - 07:40 11:50 12:20 13:00
Maximum _ 13,4 C 92 % 1033,4 hPa 0,0 mm 3,2 km/h
W (1 Bft)
- - 10 min 3 UV-I 643 W/m 9,7 km/h
N (2 Bft)
Durchschnitt _ 6,7 C 74 % 1029,2 hPa #0,0 mm 0,3 km/h (0 Bft) W - #10:40 h 2 UV-I 338 W/m 1,8 km/h (1 Bft)